Regional Weather Roundup
Issued by NWS

Home | Current Version | Previous Version | Graphics & Text | Print | Product List | Glossary On
Versions: 1 2 3 4 5 6 7 8 9 10 11 12 13 14 15 16 17 18 19 20 21 22 23 24 25 26 27 28 29 30 31 32 33 34 35 36 37 38 39 40 41 42 43 44 45 46 47 48 49 50
000
ASUS45 KSLC 060210
RWRUT

UTAH REGIONAL WEATHER ROUNDUP
NATIONAL WEATHER SERVICE SALT LAKE CITY UT
800 PM MDT SUN JUL 05 2015

UTZ001>011-023>025-060300-

NORTHERN UTAH

CITY           SKY/WX    TMP DP  RH WIND       PRES   REMARKS
BRIGHAM CITY   PTSUNNY   80  49  33 N5        30.01R
HILL AFB       PTCLDY    79  59  50 N8        30.03R
LOGAN          MOSUNNY   74  60  61 S9        30.02S
OGDEN          PTCLDY    80  58  46 N13       30.00R
PROVO AIRPORT  PTCLDY    84  55  37 MISG      29.98R
SALT LAKE CITY PTCLDY    86  58  38 N14       29.97R
VERNAL         PTCLDY    75  53  46 NE13      30.05S
WENDOVER       MOSUNNY   82  52  34 N20       29.99R
HEBER CITY     MOCLDY    81  52  36 N6        30.06R
WEST JORDAN    CLEAR     84  54  34 N10       30.01R

$$

UTZ012>022-026-027-060300-

SOUTHERN/CENTRAL UTAH

CITY           SKY/WX    TMP DP  RH WIND       PRES   REMARKS
BLANDING       MOCLDY    73  62  68 CALM      30.18R
BRYCE CANYON   PTCLDY    69  44  40 W15       30.27R
CEDAR CITY     CLOUDY    77  44  30 SW13      30.12R
DELTA          PTCLDY    90  37  15 N20G28    29.97R
MILFORD        MOCLDY    82  45  27 S15       30.01R
MOAB/CYNLANDS  CLEAR     78  57  48 E14       29.97R
PRICE          PTCLDY    85  44  23 N10       30.06R
ST GEORGE      CLEAR     90  46  22 SE7       29.92S
KANAB          MOCLDY    81  48  32 S5        30.15R

$$

REGIONAL REPORTS     COLORADO/ARIZONA

CITY           SKY/WX    TMP DP  RH WIND       PRES   REMARKS
CRAIG, CO      CLOUDY    62  58  86 CALM      30.19R
GRAND JUNCTION MOCLDY    70  60  70 S8        30.05R
RIFLE          CLOUDY    65  61  87 NE7       30.12R
MONTROSE       CLOUDY    68  56  65 NW14G24   30.18R
CORTEZ         CLEAR     77  51  40 N5        30.11R
PAGE, AZ       MOCLDY    88  45  22 W14G26    29.99R
GRAND CANYON   CLOUDY    65  57  75 CALM      30.26R
KINGMAN        MOCLDY    86  54  33 NE32      30.00R
FLAGSTAFF      CLOUDY    65  54  67 VRB5      30.29R

$$

REGIONAL REPORTS    NEVADA/IDAHO/WYOMING

CITY           SKY/WX    TMP DP  RH WIND       PRES   REMARKS
LAS VEGAS, NV  CLOUDY    94  47  20 S7        29.83R HX  90
ELY            MOSUNNY   84  34  16 NW15G23   30.12R
ELKO           SUNNY     83  43  24 W23       30.06R
POCATELLO, ID  MOSUNNY   78  55  44 SW16      30.02R
BURLEY         MOSUNNY   74  57  55 W10       30.00R
EVANSTON, WY   MOCLDY    67  56  67 N9        30.20R
ROCK SPRINGS   PTCLDY    64  57  78 S5        30.18S
KEMMERER       CLEAR     66  48  52 NW7       30.21S

$$



USA.gov is the U.S. government's official web portal to all federal, state and local government web resources and services.